Weather History for EGPF - August, 2013

Change the Weather History Date:

Thursday, August 1, 2013

  Actual Average Record
Temperature  
Mean Temperature 62 °F -  
Max Temperature 68 °F 65 °F - (-1)
Min Temperature 57 °F 49 °F - (-1)
Degree Days  
Heating Degree Days 2    
Growing Degree Days 12 (Base 50)    
Moisture  
Dew Point 60 °F    
Average Humidity 90    
Maximum Humidity 100    
Minimum Humidity 78    
Precipitation  
Precipitation 0.00 in - - ()
Sea Level Pressure  
Sea Level Pressure 29.65 in    
Wind  
Wind Speed 7 mph ()    
Max Wind Speed 14 mph    
Max Gust Speed -    
Visibility 4.9 miles    
Events Rain    
Averages and records for this station are not official NWS values.
T = Trace of Precipitation, MM = Missing Value Source: Averaged Metar Reports

Daily Weather History Graph

Daily Weather History Graph

Search for Another Location

Airport or City:

Trip Planner

Search our weather history database for the weather conditions in past years. The results will help you decide how hot, cold, wet, or windy it might be!

Date:

Astronomy

Aug. 01, 2013 Rise Set
Actual Time 5:22 AM BST 9:24 PM BST
Civil Twilight 4:34 AM BST 10:12 PM BST
Nautical Twilight 3:22 AM BST 11:22 PM BST
Astronomical Twilight 1:56 AM BST 12:51 AM BST
Moon 12:45 AM BST (8/1) 5:27 PM BST (8/1)
Length of Visible Light 17h 37m
Length of Day
16h 01m
Waning Crescent, 25% of the Moon is Illuminated
Aug 1
Waning Crescent
Aug 6
New
Aug 14
First Quarter
Aug 21
Full
Aug 28
Last Quarter

Hourly Weather History & Observations

Time (BST) Temp. Dew Point Humidity Pressure Visibility Wind Dir Wind Speed Gust Speed Precip Events Conditions
12:20 AM 57.2 °F 55.4 °F 94% 29.74 in 3.1 mi ENE 10.4 mph - N/A Rain Light Rain
12:50 AM 57.2 °F 55.4 °F 94% 29.71 in 2.5 mi ENE 10.4 mph - N/A Rain Rain
1:20 AM 57.2 °F 57.2 °F 100% 29.71 in 2.2 mi ENE 11.5 mph - N/A   Drizzle
1:50 AM 57.2 °F 57.2 °F 100% 29.71 in - East 9.2 mph - N/A   Drizzle
2:20 AM 59.0 °F 57.2 °F 94% 29.71 in - East 9.2 mph - N/A   Light Drizzle
2:50 AM 59.0 °F 57.2 °F 94% 29.71 in 1.4 mi ENE 6.9 mph - N/A   Light Drizzle
3:20 AM 59.0 °F 57.2 °F 94% 29.71 in 1.7 mi East 5.8 mph - N/A   Drizzle
3:50 AM 59.0 °F 57.2 °F 94% 29.68 in 4.3 mi ENE 6.9 mph - N/A Rain Light Rain
4:20 AM 59.0 °F 57.2 °F 94% 29.68 in 5.0 mi East 6.9 mph - N/A Rain Light Rain
4:50 AM 59.0 °F 57.2 °F 94% 29.68 in 3.1 mi ENE 5.8 mph - N/A Rain Rain
5:20 AM 59.0 °F 57.2 °F 94% 29.68 in 2.5 mi ENE 4.6 mph - N/A   Light Drizzle
5:50 AM 59.0 °F 57.2 °F 94% 29.68 in 3.7 mi ENE 5.8 mph - N/A   Overcast
6:20 AM 59.0 °F 59.0 °F 100% 29.68 in 2.5 mi ENE 4.6 mph - N/A   Drizzle
6:50 AM 59.0 °F 59.0 °F 100% 29.68 in 3.7 mi ENE 5.8 mph - N/A Rain Light Rain
7:20 AM 60.8 °F 59.0 °F 94% 29.68 in 3.1 mi ENE 5.8 mph - N/A Rain Light Rain
7:50 AM 60.8 °F 60.8 °F 100% 29.65 in 6.2 mi NE 5.8 mph - N/A Rain Light Rain
8:20 AM 60.8 °F 60.8 °F 100% 29.65 in 6.2 mi ENE 5.8 mph - N/A Rain Light Rain
8:50 AM 60.8 °F 60.8 °F 100% 29.65 in 5.0 mi ENE 6.9 mph - N/A Rain Light Rain
9:20 AM 62.6 °F 60.8 °F 94% 29.65 in - East 4.6 mph - N/A Rain Rain
9:50 AM 62.6 °F 62.6 °F 100% 29.65 in 1.9 mi East 2.3 mph - N/A Rain Rain
10:20 AM 64.4 °F 62.6 °F 94% 29.65 in - Variable 2.3 mph - N/A Rain Rain
10:50 AM 64.4 °F 62.6 °F 94% 29.65 in 3.7 mi South 6.9 mph - N/A Rain Light Rain
11:20 AM 64.4 °F 62.6 °F 94% 29.65 in 5.6 mi South 9.2 mph - N/A Rain Light Rain
11:50 AM 64.4 °F 62.6 °F 94% 29.65 in 6.2 mi South 11.5 mph - N/A Rain Light Rain
12:20 PM 64.4 °F 62.6 °F 94% 29.65 in 6.2 mi South 13.8 mph - N/A Rain Light Rain
12:50 PM 64.4 °F 62.6 °F 94% 29.65 in 5.0 mi SSW 13.8 mph - N/A Rain Light Rain
1:20 PM 66.2 °F 62.6 °F 88% 29.65 in 3.7 mi South 12.7 mph - N/A Rain Light Rain
1:50 PM 66.2 °F 62.6 °F 88% 29.65 in 3.7 mi South 10.4 mph - N/A Rain Light Rain
2:20 PM 64.4 °F 62.6 °F 94% 29.65 in 3.7 mi South 10.4 mph - N/A Rain Light Rain
2:50 PM 68.0 °F 62.6 °F 83% 29.65 in 6.2 mi South 13.8 mph - N/A   Mostly Cloudy
3:20 PM 68.0 °F 62.6 °F 83% 29.65 in 6.2 mi South 13.8 mph - N/A   Mostly Cloudy
3:50 PM 68.0 °F 62.6 °F 83% 29.65 in 6.2 mi South 13.8 mph - N/A   Mostly Cloudy
4:20 PM 66.2 °F 62.6 °F 88% 29.65 in 6.2 mi SSE 11.5 mph - N/A   Mostly Cloudy
4:50 PM 68.0 °F 62.6 °F 83% 29.65 in 6.2 mi South 8.1 mph - N/A   Mostly Cloudy
5:20 PM 68.0 °F 62.6 °F 83% 29.65 in 6.2 mi SSE 6.9 mph - N/A   Mostly Cloudy
5:50 PM 66.2 °F 62.6 °F 88% 29.65 in 6.2 mi South 13.8 mph - N/A   Scattered Clouds
6:20 PM 66.2 °F 62.6 °F 88% 29.62 in 6.2 mi South 8.1 mph - N/A   Scattered Clouds
6:50 PM 68.0 °F 60.8 °F 78% 29.62 in 6.2 mi South 8.1 mph - N/A   Scattered Clouds
7:20 PM 68.0 °F 60.8 °F 78% 29.62 in 6.2 mi SSE 6.9 mph - N/A   Scattered Clouds
7:50 PM 68.0 °F 60.8 °F 78% 29.62 in 6.2 mi SE 4.6 mph - N/A   Scattered Clouds
8:20 PM 68.0 °F 60.8 °F 78% 29.62 in 6.2 mi SE 4.6 mph - N/A   Scattered Clouds
8:50 PM 68.0 °F 62.6 °F 83% 29.62 in 6.2 mi SE 4.6 mph - N/A   Mostly Cloudy
9:20 PM 68.0 °F 60.8 °F 78% 29.62 in 6.2 mi ESE 6.9 mph - N/A   Mostly Cloudy
9:50 PM 68.0 °F 60.8 °F 78% 29.62 in 6.2 mi ESE 6.9 mph - N/A   Mostly Cloudy
10:20 PM 68.0 °F 60.8 °F 78% 29.62 in 6.2 mi Variable 3.5 mph - N/A   Mostly Cloudy
10:50 PM 66.2 °F 62.6 °F 88% 29.59 in 6.2 mi East 4.6 mph - N/A   Mostly Cloudy
11:20 PM 66.2 °F 62.6 °F 88% 29.59 in 6.2 mi East 4.6 mph - N/A   Mostly Cloudy
11:50 PM 66.2 °F 60.8 °F 83% 29.59 in 6.2 mi Variable 3.5 mph - N/A   Mostly Cloudy